Weather History for KUES - April, 2014

Change the Weather History Date:

Monday, April 28, 2014

  Actual Average Record
Temperature  
Mean Temperature 40 °F -  
Max Temperature 44 °F 59 °F 83 °F (1951)
Min Temperature 37 °F 39 °F 28 °F (1976)
Degree Days  
Heating Degree Days 24    
Moisture  
Dew Point 36 °F    
Average Humidity 84    
Maximum Humidity 100    
Minimum Humidity 66    
Precipitation  
Precipitation 0.02 in - - ()
Sea Level Pressure  
Sea Level Pressure 29.78 in    
Wind  
Wind Speed 14 mph (ENE)    
Max Wind Speed 21 mph    
Max Gust Speed 40 mph    
Visibility 8 miles    
Events Rain    
Averages and records for this station are not official NWS values.
T = Trace of Precipitation, MM = Missing Value Source: NWS Daily Summary

Daily Weather History Graph

Daily Weather History Graph

Search for Another Location

Airport or City:

Trip Planner

Search our weather history database for the weather conditions in past years. The results will help you decide how hot, cold, wet, or windy it might be!

Date:

Astronomy

Apr. 28, 2014 Rise Set
Actual Time 5:50 AM CDT 7:50 PM CDT
Civil Twilight 5:20 AM CDT 8:21 PM CDT
Nautical Twilight 4:42 AM CDT 8:59 PM CDT
Astronomical Twilight 4:01 AM CDT 9:40 PM CDT
Moon 5:30 AM CDT (4/28) 7:27 PM CDT (4/28)
Length of Visible Light 15h 01m
Length of Day
13h 59m
Waning Crescent, 0% of the Moon is Illuminated
Apr 28
Waning Crescent
Apr 29
New
May 6
First Quarter
May 14
Full
May 21
Last Quarter

Hourly Weather History & Observations

Time (CDT) Temp. Windchill Dew Point Humidity Pressure Visibility Wind Dir Wind Speed Gust Speed Precip Events Conditions
12:15 AM 42.8 °F 35.1 °F 32.0 °F 66% 29.90 in 10.0 mi East 16.1 mph 23.0 mph N/A Rain Rain
12:35 AM 42.8 °F 36.6 °F 33.8 °F 70% 29.91 in 10.0 mi ENE 11.5 mph 17.3 mph N/A   Overcast
12:55 AM 41.0 °F 33.5 °F 33.8 °F 76% 29.92 in 10.0 mi ENE 13.8 mph 17.3 mph N/A   Overcast
1:15 AM 41.0 °F 34.7 °F 33.8 °F 76% 29.92 in 10.0 mi East 10.4 mph 17.3 mph N/A   Overcast
1:35 AM 41.0 °F 33.5 °F 33.8 °F 76% 29.91 in 10.0 mi East 13.8 mph 18.4 mph N/A Rain Light Rain
1:55 AM 39.2 °F 31.6 °F 35.6 °F 87% 29.91 in 10.0 mi East 12.7 mph 20.7 mph 0.01 in Rain Light Rain
2:15 AM 39.2 °F 32.0 °F 35.6 °F 87% 29.90 in 10.0 mi East 11.5 mph 19.6 mph 0.01 in Rain Light Rain
2:35 AM 39.2 °F 31.2 °F 35.6 °F 87% 29.89 in 10.0 mi East 13.8 mph 19.6 mph 0.01 in   Light Drizzle
2:55 AM 39.2 °F 31.6 °F 35.6 °F 87% 29.88 in 10.0 mi East 12.7 mph 19.6 mph 0.01 in   Overcast
3:15 AM 39.2 °F 32.0 °F 33.8 °F 81% 29.87 in 10.0 mi East 11.5 mph 20.7 mph N/A   Overcast
3:35 AM 39.2 °F 30.5 °F 35.6 °F 87% 29.86 in 10.0 mi ENE 16.1 mph 23.0 mph N/A   Overcast
3:55 AM 37.4 °F 28.2 °F 35.6 °F 93% 29.84 in 5.0 mi East 16.1 mph 25.3 mph N/A Rain Rain
4:15 AM 37.4 °F 28.9 °F 35.6 °F 93% 29.84 in 10.0 mi East 13.8 mph 26.5 mph N/A   Overcast
4:35 AM 39.2 °F 30.8 °F 35.6 °F 87% 29.84 in 10.0 mi East 15.0 mph 21.9 mph N/A   Overcast
5:15 AM 39.2 °F 29.3 °F 33.8 °F 81% 29.81 in 10.0 mi East 20.7 mph 25.3 mph N/A   Overcast
5:35 AM 39.2 °F 29.6 °F 32.0 °F 75% 29.80 in 10.0 mi East 19.6 mph 28.8 mph N/A   Overcast
5:45 AM 39.2 °F 32.0 °F 33.8 °F 81% 29.80 in 7.0 mi East 11.5 mph 32.2 mph N/A   Mostly Cloudy
6:45 AM 41.0 °F 34.3 °F 32.0 °F 70% 29.82 in 10.0 mi East 11.5 mph 32.2 mph N/A   Overcast
7:45 AM 39.2 °F 32.0 °F 33.8 °F 81% 29.82 in 10.0 mi East 11.5 mph 32.2 mph N/A   Overcast
8:30 AM 39.2 °F 32.0 °F 33.8 °F 81% 29.82 in 2.0 mi East 11.5 mph 32.2 mph N/A Rain Overcast
8:45 AM 39.2 °F 32.0 °F 33.8 °F 81% 29.82 in 2.0 mi East 11.5 mph 32.2 mph N/A Rain Overcast
9:45 AM 37.4 °F 29.8 °F 35.6 °F 93% 29.77 in 2.0 mi East 11.5 mph 32.2 mph N/A Rain Overcast
10:05 AM 37.4 °F 29.8 °F 35.6 °F 93% 29.75 in 5.0 mi East 11.5 mph 32.2 mph N/A Rain Overcast
10:45 AM 37.4 °F 29.8 °F 35.6 °F 93% 29.75 in 7.0 mi East 11.5 mph 32.2 mph N/A   Overcast
11:45 AM 37.4 °F 26.9 °F 35.6 °F 93% 29.75 in 5.0 mi East 20.7 mph 32.2 mph N/A   Overcast
12:45 PM 42.8 °F 34.0 °F 37.4 °F 81% 29.76 in 7.0 mi East 20.7 mph 32.2 mph N/A   Light Drizzle
1:20 PM 41.0 °F 31.6 °F 37.4 °F 87% 29.74 in 3.0 mi East 20.7 mph 32.2 mph N/A Rain Rain
1:45 PM 41.0 °F 32.5 °F 37.4 °F 87% 29.73 in 3.0 mi East 17.3 mph 28.8 mph N/A Rain Light Rain
2:45 PM 41.0 °F 32.5 °F 39.2 °F 93% 29.73 in 7.0 mi East 17.3 mph 40.3 mph N/A   Overcast
3:45 PM 42.8 °F 34.8 °F 39.2 °F 87% 29.71 in 10.0 mi East 17.3 mph 28.8 mph N/A   Overcast
4:45 PM 44.6 °F 38.8 °F 37.4 °F 76% 29.67 in 10.0 mi ENE 11.5 mph 23.0 mph N/A   Overcast
5:45 PM 44.6 °F 38.8 °F 35.6 °F 71% 29.67 in 10.0 mi ENE 11.5 mph 23.0 mph N/A   Overcast
6:45 PM 44.6 °F 38.8 °F 33.8 °F 66% 29.67 in 10.0 mi ENE 11.5 mph 23.0 mph N/A   Overcast
7:15 PM 44.6 °F 38.8 °F 33.8 °F 66% 29.73 in 2.0 mi ENE 11.5 mph 23.0 mph N/A Rain Rain
8:45 PM 39.2 °F 32.0 °F 37.4 °F 93% 29.69 in 10.0 mi ENE 11.5 mph 25.3 mph N/A   Overcast
9:15 PM 39.2 °F 30.8 °F 37.4 °F 93% 29.67 in 10.0 mi NE 15.0 mph 23.0 mph N/A   Overcast
9:55 PM 39.2 °F 32.5 °F 37.4 °F 93% 29.68 in 10.0 mi ENE 10.4 mph 20.7 mph N/A   Overcast
10:15 PM 39.2 °F 31.2 °F 37.4 °F 93% 29.68 in 10.0 mi ENE 13.8 mph 18.4 mph N/A   Overcast
10:35 PM 39.2 °F 31.2 °F 37.4 °F 93% 29.68 in 7.0 mi ENE 13.8 mph 21.9 mph N/A   Overcast
10:55 PM 39.2 °F 31.2 °F 37.4 °F 93% 29.67 in 10.0 mi ENE 13.8 mph 19.6 mph N/A   Overcast
11:15 PM 39.2 °F 32.0 °F 37.4 °F 93% 29.67 in 10.0 mi ENE 11.5 mph 19.6 mph N/A   Overcast
11:35 PM 37.4 °F 27.5 °F 37.4 °F 100% 29.64 in 10.0 mi ENE 18.4 mph 24.2 mph N/A   Overcast
11:55 PM 37.4 °F 26.9 °F 35.6 °F 93% 29.60 in 10.0 mi ENE 20.7 mph 27.6 mph N/A Rain Light Rain